www.pogodaiklimat.ru
ПОГОДА в Уэллсвилле
Время
и дата
08:56 26.06
09:56 26.06
10:56 26.06
11:56 26.06
12:56 26.06
13:56 26.06
14:56 26.06
15:56 26.06
16:56 26.06
17:56 26.06
18:56 26.06
19:56 26.06
20:56 26.06
21:56 26.06
22:56 26.06
23:41 26.06
23:54 26.06
23:56 26.06
00:54 27.06
00:56 27.06
01:56 27.06
02:37 27.06
02:43 27.06
02:56 27.06
03:56 27.06
04:09 27.06
04:18 27.06
04:36 27.06
04:56 27.06
05:07 27.06
05:56 27.06
06:56 27.06
07:56 27.06
08:56 27.06
09:56 27.06
10:56 27.06
11:56 27.06
12:56 27.06
13:56 27.06
14:56 27.06
15:56 27.06
16:56 27.06
17:56 27.06
18:56 27.06
19:56 27.06
20:56 27.06
21:56 27.06
22:56 27.06
Ветер
(напр.,м/с)
Видим. Явления Облачность Т
(С)
Тd
(С)
f
(%)
Тe
(С)
Тes
(С)
Комфортность P
(гПа)
Po
(гПа)
Тmin
(С)
Tmax
(С)
R
(мм)
R24
(мм)
S
(см)
Ю 1 16 км ясно +26.1 +17.2 58 +30 +36 душно 1017.2 943.0
Ю 2
{4}
16 км ясно +27.8 +17.8 55 +32 +40 душно 1016.9 943.0
ЮЗ 2
{4}
16 км 2/2 900 м +28.3 +18.9 57 +34 +42 очень
душно
1016.7 942.7
ЮЗ 2
{4}
16 км слабый дождь 8/8 1170 м +26.7 +17.8 58 +31 +34 душно 1016.2 942.1
Ю 2
{4}
16 км слабый дождь 10/2 990 м
[Ac]
+26.1 +19.4 67 +32 +36 очень
душно
1016.1 941.8 +22.2 +30.0
ЮЗ 1 16 км 10/2 1050 м
[Ac]
+25.6 +20.0 71 +31 +39 очень
душно
1015.4 941.2
ЮЗ 2 16 км 10/0 2250 м
[Ac]
+26.7 +19.4 64 +32 +36 очень
душно
1014.9 940.8
ЮЗ 2
{4}
16 км 10/0 2250 м
[Ac]
+27.2 +18.3 58 +32 +35 очень
душно
1014.4 940.2
ЮЗ 2
{5}
16 км 8/2 1050 м
[Ac]
+26.1 +16.7 56 +30 +33 душно 1014.5 940.2
ЮЗ 1 16 км 5/2 1800 м
[Ac]
+25.6 +16.7 58 +29 +32 душно 1014.4 940.2
З 1 8 км слабый дождь 10/0 2550 м
[Ac]
+22.8 +18.3 76 +28 +29 душно 1014.5 940.2 +22.8 +27.8 0.5
Ю 1 16 км 10/5 1320 м
[Ac]
+21.7 +18.9 84 +27 +27 душно 1014.5 940.2
ЮЗ 1 16 км слабый дождь 8/0 2400 м
[Ac]
+21.7 +18.9 84 +27 +27 душно 1014.3 940.2
ЮЗ 1 6 км дождь, дымка 8/0 3300 м
[Ac]
+21.1 +18.9 87 +25 +25 комфорт 1014.0 939.9 2.3
ЮЗ 1 14 км 10/5 660 м
[Ac]
+21.1 +19.4 90 +26 +26 душно 1013.6 939.6
ЮЗ 2
{4}
13 км 10/8 300 м
[Ac]
+21.1 +19.4 90 +26 +26 душно 939.6
ЮЗ 2 13 км 10/10 300 м +21.0 +19.0 88 +26 +26 душно 939.6
ЮЗ 2 11 км 10/10 300 м +21.1 +19.4 90 +26 +26 душно 1013.6 939.6
З 2 11 км 8/5 300 м
[Ac]
+21.0 +19.0 88 +26 +26 душно 939.3
З 2 11 км 8/5 300 м
[Ac]
+21.1 +19.4 90 +26 +26 душно 1013.4 939.3 +21.1 +22.8 3.0
З 2 10 км дымка 10/10 570 м +21.1 +18.9 87 +25 +25 комфорт 1013.3 939.3
З 3
{5}
4 км дождь, дымка 10/10 300 м +20.6 +18.3 87 +24 +24 комфорт 939.3
З 3
{5}
5 км слабый дождь 10/10 300 м +20.6 +17.8 84 +24 +24 комфорт 939.3
З 3 16 км 10/8 420 м
[Ac]
+19.4 +16.7 84 +21 +21 комфорт 1013.7 939.6
З 2 16 км 8/8 450 м +18.3 +15.6 84 +18 +18 1014.4 940.2 1.0
СЗ 2 14 км 10/10 330 м +18.3 +15.6 84 +18 +18 940.2
С 2 14 км 10/10 270 м +18.3 +16.1 87 +19 +19 940.5
СЗ 3
{5}
16 км 8/8 240 м +17.2 +11.7 70 +16 +16 940.8
СЗ 2 16 км 8/8 780 м +16.1 +11.7 75 +15 +15 1015.4 940.8
СЗ 2 16 км 5/5 780 м +16.1 +11.7 75 +15 +15 940.8
СЗ 2 16 км 2/2 840 м +16.1 +11.7 75 +15 +15 1015.9 941.5
СЗ 2 16 км ясно +16.7 +11.7 72 +16 +16 1016.8 942.1 +16.1 +21.1 1.0 4.6
СЗ 3
{4}
16 км 2/2 720 м +18.3 +11.7 65 +18 +19 1017.2 942.4
З 2 16 км 5/5 780 м +18.9 +11.7 63 +19 +21 1017.5 942.7
СЗ 3 16 км 5/5 1140 м +20.6 +10.6 53 +22 +24 комфорт 1017.3 942.7
СЗ 3
{5}
16 км 2/2 1290 м +21.7 +10.0 47 +23 +27 комфорт 1017.3 942.7
З 3
{5}
16 км 5/5 1380 м +22.8 +8.9 41 +24 +27 комфорт 1017.2 942.7
З 2
{4}
16 км 5/5 1500 м +22.2 +8.9 43 +24 +29 комфорт 1017.1 942.4 +16.7 +22.8
З 3 16 км 5/5 1650 м +22.2 +7.8 40 +23 +26 комфорт 1016.9 942.4
СЗ 4
{5}
16 км ясно +22.8 +6.1 34 +23 +26 комфорт 1017.0 942.4
СЗ 3
{5}
16 км ясно +22.2 +6.7 37 +23 +27 комфорт 1017.3 942.4
СЗ 3
{4}
16 км 8/8 1500 м +20.0 +7.8 45 +21 +21 комфорт 1018.1 943.0
СЗ 3
{5}
16 км 2/2 1500 м +17.8 +6.1 46 +17 +18 1019.2 944.0
СЗ 3 16 км 5/5 1650 м +16.7 +6.7 52 +16 +16 1019.9 944.3 +16.7 +23.3
СЗ 2 16 км 8/8 1950 м +15.0 +6.7 58 +14 +14 1020.4 944.9
З 2 16 км 10/10 1950 м +14.4 +7.8 65 +13 +13 1020.8 945.2
З 2 16 км 10/10 1950 м +13.9 +7.2 64 +13 +13 1021.0 945.5
З 1 16 км 5/0 2100 м
[Ac]
+13.9 +7.2 64 +13 +13 1020.9 945.5
Местоположение метеостанции Wellsville Municipal Airport: широта 42.1075 долгота -77.9844 высота над уровнем моря 647 м.
В архиве по умолчанию представлена погода в Уэллсвилле за последние 1-2 суток. Обновление информации о фактической погоде в базе происходит ежечасно! Архивные данные за месяц целиком и за предыдущие месяцы Вы можете получить, выбрав интересующий диапазон дат из раскрывающегося списка и нажав кнопку "Ввод!".
Внимание! Архив погоды МЕТАР в базе сайта по станциям, не включенным в климатический монитор, хранится не более 60 дней. Нет смысла пытаться выбрать более раннюю дату.
*Определитесь, кто Вы:
Внимание! Время в таблицах - местное (без учета летнего времени). Для получения всемирного времени необходимо вычесть поправку, которая равна -5 ч.
Смотрите также архив погоды в соседних городах и на ближайших метеорологических станциях:
Партнеры нашего сайта:      
Пояснения к столбцам:
  • Ветер - указаны скорость ветра в м/с - средняя за 10 мин, порывы в срок и между сроками (в фигурных скобках) и направление, откуда дует ветер: С - северный,
  • СВ - северо-восточный, В - восточный, ЮВ - юго-восточный, Ю - южный, ЮЗ - юго-западный, З - западный, СЗ - северо-западный.
  • Видимость - горизонтальная дальность видимости в метрах или километрах. При видимости от 1 до 10 км при отсутствии осадков обычно наблюдается дымка, при ухудшении видимости до 1 км и менее - туман. В сухую погоду видимость может ухудшаться дымом, пылью или мглою.
  • Явления - указаны атмосферные явления, наблюдавшиеся в срок или в последний час перед сроком; фигурными скобками обозначены явления, наблюдавшиеся между сроками (за 1-3 часа до срока); квадратными скобками обозначены град или гололедные отложения с указанием их диаметра в мм.
  • Облачность - указаны через наклонную черту общая и нижняя облачность в баллах и высота нижней границы облаков в метрах; квадратными скобками обозначены формы облаков: Ci - перистые, Cs - перисто-слоистые, Cc - перисто-кучевые, Ac - высококучевые, As - высокослоистые, Sc - слоисто-кучевые, Ns - слоисто-дождевые, Cu - кучевые, Cb - кучево-дождевые. Подробнее классификацию облаков см. в Атласе облаков (PDF).
  • T - Температура воздуха - температура, измеренная на высоте 2 м над землей.
  • Td - Температура точки росы - температура, при понижении до которой содержащийся в воздухе водяной пар достигнет насыщения.
  • f - Относительная влажность воздуха - влажноcть воздуха, измеренная на высоте 2 м над землей.
  • Te - Эффективная температура - температура, которую ощущает одетый по сезону человек в тени. Характеристика душности погоды. При расчете учитывается влияние влажности воздуха и скорости ветра на теплоощущения человека.
  • Tes - Эффективная температура на солнце - температура, которую ощущает человек, с поправкой на солнечный нагрев. Характеристика знойности погоды. Зависит от высоты солнца над горизонтом, облачности и скорости ветра. Ночью, в пасмурную погоду, а также при ветре 12 м/с и более поправка равна нулю.
  • P - Атмосферное давление - приведенное к уровню моря атмосферное давление.
  • Po - Атмосферное давление - измеренное на уровне метеостанции атмосферное давление.
  • Tmin - Минимальная температура - минимум температуры воздуха на высоте 2 м над землей.
  • Tmax - Максимальная температура - максимум температуры воздуха на высоте 2 м над землей.
  • R - Количество осадков - Количество выпавших осадков за период времени, мм. При наведении курсора мыши на число - период времени, за который выпало указанное количество осадков.
  • R24 - Количество осадков - Количество выпавших осадков за 24 часа, мм.
  • S - Снежный покров - Высота снежного покрова, см. При наведении курсора мыши на число - состояние снежного покрова и степень покрытия местности в баллах.